Location: Bonningues
(50.7927°N, 2.0150°E)
Time: 21:36:10
(UTC+00:00)

SL-16 R/B - Pass Details

Date: 08 August 2020
Orbit: 840 x 849 km, 71.0° (Epoch: 21 September)

Event Time Altitude Azimuth Distance (km) Brightness Sun altitude
Rises 23:45:19 0° 331° (NNW) 3,425 6.4 -23.4°
Reaches altitude 10° 23:48:16 10° 346° (NNW) 2,487 5.7 -23.4°
Maximum altitude 23:52:51 24° 39° (NE) 1,693 4.3 -23.4°
Drops below altitude 10° 23:57:24 10° 93° (E) 2,476 4.6 -23.4°
Enters shadow 00:00:15 - 106° (ESE) 3,377 5.2 -23.4°
